Simultaneous Nadir Overpasses (SNOs) Predictions

Prediction of SNOs between AQUA and METOP-B Satellite Orbit:

Table of predicted SNOs for the next 14.0 days since TLE Epoch: 7/5/2013
Index Date (AQUA) Time (AQUA) Lat,Lon (AQUA) SZA (AQUA ) Date (METOP-B) Time (METOP-B) Lat,Lon (METOP-B) SZA (METOP-B ) Distance(km) Time Diff (sec)
1 07/07/2013 04:11:21 -73.71, -68.26 128.83 07/07/2013 04:10:12 -73.69, -68.26 128.83 2.17 69
2 07/07/2013 05:00:50 73.77, 99.24 51.25 07/07/2013 05:00:50 73.78, 99.28 51.25 1.41 0
3 07/07/2013 05:50:17 -73.86, -93.31 128.66 07/07/2013 05:51:30 -73.86, -93.18 128.67 4.13 73
4 07/09/2013 23:45:35 -73.71, -1.84 128.48 07/09/2013 23:44:32 -73.73, -1.75 128.46 3.35 63
5 07/10/2013 00:35:04 73.78, 165.65 51.59 07/10/2013 00:35:11 73.76, 165.66 51.57 2.27 7
6 07/10/2013 01:24:36 -74.13, -27.47 128.03 07/10/2013 01:25:46 -74.10, -26.18 128.11 39.42 70
7 07/12/2013 19:19:50 -73.74, 64.55 128.08 07/12/2013 19:18:54 -73.72, 64.64 128.09 3.35 56
8 07/12/2013 20:09:18 73.76,-127.85 51.95 07/12/2013 20:09:32 73.79,-127.86 51.98 3.79 14
9 07/12/2013 20:58:55 -74.35, 38.43 127.40 07/12/2013 21:00:02 -74.39, 40.94 127.47 75.37 67
10 07/15/2013 14:54:04 -73.72, 131.02 127.66 07/15/2013 14:53:16 -73.70, 131.00 127.67 2.48 48
11 07/15/2013 15:43:33 73.80, -61.51 52.43 07/15/2013 15:43:54 73.76, -61.51 52.39 3.77 21
12 07/18/2013 10:28:17 -73.72,-162.54 127.18 07/18/2013 10:27:36 -73.73,-162.52 127.17 0.66 41
13 07/18/2013 11:17:46 73.80, 4.92 52.91 07/18/2013 11:18:14 73.78, 4.94 52.89 2.35 28




NCC Satellite Simultaneous Nadir Overpasses (SNOs) Prediction Service
